This is the latest recevied weather packets stored in our database for station/object DL0GY-13. If no packets are shown the sender has not sent any weather packets the latest 10 day(s).
| Time | Temp. | Humidity | Pressure | Rain* | Wind** | Luminosity | Snow |
|---|---|---|---|---|---|---|---|
| 1777610434 | 8.89° C | 67% | 1026.5 hPa | 0 mm | - | - | - |
| 1777609834 | 8.33° C | 69% | 1026.4 hPa | 0 mm | - | - | - |
| 1777609234 | 7.22° C | 72% | 1026.4 hPa | 0 mm | - | - | - |
| 1777608034 | 7.22° C | 70% | 1026.2 hPa | 0 mm | - | - | - |
| 1777606834 | 7.22° C | 69% | 1026 hPa | 0 mm | - | - | - |
| 1777605034 | 7.22° C | 67% | 1026 hPa | 0 mm | - | - | - |
| 1777604434 | 7.22° C | 65% | 1026.1 hPa | 0 mm | - | - | - |
| 1777603834 | 7.78° C | 65% | 1026 hPa | 0 mm | - | - | - |
| 1777603234 | 7.78° C | 64% | 1026 hPa | 0 mm | - | - | - |
| 1777602034 | 8.33° C | 64% | 1025.7 hPa | 0 mm | - | - | - |
| 1777601434 | 8.89° C | 64% | 1025.7 hPa | 0 mm | - | - | - |
| 1777600234 | 8.89° C | 63% | 1025.7 hPa | 0 mm | - | - | - |
| 1777599634 | 8.89° C | 63% | 1025.8 hPa | 0 mm | - | - | - |
| 1777598434 | 8.89° C | 62% | 1025.6 hPa | 0 mm | - | - | - |
| 1777597834 | 8.89° C | 61% | 1025.7 hPa | 0 mm | - | - | - |
| 1777597234 | 8.89° C | 60% | 1025.7 hPa | 0 mm | - | - | - |
| 1777596634 | 8.89° C | 60% | 1025.8 hPa | 0 mm | - | - | - |
| 1777596034 | 8.89° C | 59% | 1025.7 hPa | 0 mm | - | - | - |
| 1777595434 | 8.89° C | 59% | 1025.7 hPa | 0 mm | - | - | - |
| 1777594234 | 8.89° C | 56% | 1025.8 hPa | 0 mm | - | - | - |
| 1777593634 | 8.89° C | 56% | 1026.1 hPa | 0 mm | - | - | - |
| 1777592434 | 10° C | 53% | 1026 hPa | 0 mm | - | - | - |
| 1777591834 | 10.56° C | 54% | 1026 hPa | 0 mm | - | - | - |
| 1777591234 | 11.11° C | 53% | 1025.9 hPa | 0 mm | - | - | - |
| 1777590634 | 11.11° C | 52% | 1025.8 hPa | 0 mm | - | - | - |
* Rain latest hour (hover to see other rain measurements)
** Current wind speed in m/s (hover to see current wind gust speed)